Home > Weather > Freistadt > Past weeks

Flag for Austria Past Weather in Freistadt, Upper Austria, Austria — Yesterday and Last 2 Weeks

Now
60 °F

Cool.


Feels Like: 60 °F
Forecast: 60 / 77 °F
Wind: 1 mph from Northeast

Location: Rohrbach

Current Time: Jun 30, 2016 at 6:58:37 AM

Latest Report: Jun 30, 2016 at 6:00 AM


Visibility: N/A

Pressure: 29.96 "Hg (28.02 "Hg at 565m altitude)

Humidity: 94%

Dew Point: 58 °F

Location of FreistadtLocation

Past Weather in Freistadt — Graph

°F

Freistadt Temperature Yesterday

Maximum temperature yesterday: 78 °F (at 7:00 PM)
Minimum temperature yesterday: 54 °F (at 6:00 AM)
Average temperature yesterday: 67 °F

High & Low Weather Summary for the Past Weeks

 TemperatureHumidityPressure
High88 °F (Jun 25, 6:00 PM)99% (Jun 21, 4:00 AM)30.29 "Hg (Jun 21, 4:00 AM)
Low49 °F (Jun 18, 6:00 AM)30% (Jun 24, 5:00 PM)29.44 "Hg (Jun 16, 5:00 PM)
Average64 °F75%29.99 "Hg
* Reported Jun 15 5:00 AM — Jun 30 5:00 AM, Freistadt, Weather by CustomWeather, © 2016

Note: Actual official high and low records may vary slightly from our data, if they occured in-between our weather recording intervals... More about our weather records

Advertising

Freistadt Weather History for the Previous 24 Hours

Scroll right to see more
 ConditionsComfort  
Time TempWeatherWind HumidityBarometerVisibility
5:00 AM
Thu, Jun 30
60 °FCool.1 mph96%29.96 "HgN/A
4:00 AM60 °FCool.1 mph94%29.97 "HgN/A
3:00 AM61 °FCool.1 mph94%29.96 "HgN/A
2:00 AM60 °FCool.2 mph94%29.96 "HgN/A
1:00 AM61 °FCool.1 mph94%29.96 "HgN/A
12:00 AM62 °FSprinkles. Overcast.1 mph92%29.97 "HgN/A
11:00 PM
Wed, Jun 29
66 °FMild.2 mph75%29.96 "HgN/A
10:00 PM69 °FMild.1 mph66%29.93 "HgN/A
9:00 PM71 °FMild.2 mph60%29.92 "HgN/A
8:00 PM74 °FMild.2 mph53%29.90 "HgN/A
7:00 PM78 °FWarm.1 mph48%29.89 "HgN/A
6:00 PM77 °FMild.2 mph46%29.90 "HgN/A
5:00 PM76 °FMild.2 mph52%29.92 "HgN/A
4:00 PM75 °FMild.2 mph55%29.94 "HgN/A
3:00 PM73 °FMild.1 mph53%29.95 "HgN/A
2:00 PM73 °FMild.2 mph59%29.96 "HgN/A
1:00 PM74 °FMild.3 mph56%29.96 "HgN/A
12:00 PM72 °FMild.5 mph55%29.96 "HgN/A
11:00 AM71 °FMild.5 mph61%29.96 "HgN/A
10:00 AM68 °FMild.2 mph68%29.97 "HgN/A
9:00 AM64 °FMild.1 mph73%30.00 "HgN/A
8:00 AM63 °FMild.1 mph76%29.99 "HgN/A
7:00 AM59 °FCool.No wind82%29.99 "HgN/A
6:00 AM54 °FCool.No wind90%30.01 "HgN/A
Weather by CustomWeather, © 2016

See weather overviewHow to use our weather pages